Voltar ao catálogo

STARLINK-5490

AtivoComunicaçõesVLEO
NORAD 57254·PAYLOAD·🇺🇸 United States

Lançado Jul 7, 2023 de Vandenberg Space Force Base

Loading…

Próximas Passagens (próximas 24 horas)

TLE

AtualizadoSource: CelesTrak SupGP

Época: Sep 14, 2026, 20:37 UTC

1 57254C 23094AN  26257.85951389  .00050330  00000+0  18218-2 0  2570
2 57254  43.0023  31.2848 0002078 259.9787 119.5487 15.27572710    10

Acompanhe STARLINK-5490 em tempo real com AllMySat

Download on the App Store